www.pogodaiklimat.ru

Погода и климат >> Архив погоды >> Великобритания >> Озеро Гласкарнок


ПОГОДА на Озере Гласкарнок

  • Прогноз погоды на Озере Гласкарнок
  • Монитор погоды на Озере Гласкарнок

АРХИВ ПОГОДЫ на Озере Гласкарнок

Время (UTC), дата Ветер
(напр.,м/с)
 
Видим.   Явления Облачность Т
(С)
Тd
(С)
f
(%)
Тe
(С)
Тes
(С)
Комфортность P
(гПа)
Po
(гПа)
Тmin
(С)
Tmax
(С)
R
(мм)
R24
(мм)
S
(см)
22 12.06 СВ 4 35 км н/о +7.0 +3.9 81 +3 +3 1019.8 986.9
23 12.06 СВ 4 29 км в посл. час дождь н/о +6.6 +3.7 82 +3 +3 1019.1 986.2
00 13.06 С 5 30 км н/о +6.4 +2.9 78 +2 +2 1018.3 985.4 0.0
01 13.06 С 5 30 км н/о +6.1 +2.3 77 +2 +2 1017.4 984.5
02 13.06 С 6 22 км н/о +5.8 +2.1 77 +1 +1 1016.4 983.5
03 13.06 С 4 22 км н/о +5.6 +2.3 79 +2 +2 1015.1 982.2
04 13.06 С 3 30 км в посл. час дождь н/о +5.8 +2.7 80 +3 +3 1014.1 981.3
05 13.06 С 4 17 км слаб. ливневой дождь н/о +5.7 +3.6 86 +2 +2 1013.6 980.7
06 13.06 С 4 45 км в посл. час дождь н/о +6.1 +3.1 81 +2 +2 1012.6 979.9 +5.5 0.0
07 13.06 С 4 14 км слаб. ливневой дождь н/о +5.8 +3.7 86 +2 +2 1011.9 979.1
08 13.06 С 3 26 км в посл. час дождь н/о +7.2 +3.4 77 +5 +5 1010.3 977.8
09 13.06 СЗ 3 11 км в посл. час дождь н/о +7.9 +4.3 78 +5 +5 1009.4 976.9
10 13.06 С 5 5000 м в посл. час дождь н/о +7.6 +4.6 81 +4 +4 1008.5 976.1
11 13.06 СЗ 3 14 км слаб. ливневой дождь н/о +8.3 +5.6 83 +6 +6 1007.6 975.3
12 13.06 СВ 5 19 км слаб. ливневой дождь н/о +8.4 +4.3 75 +5 +5 1006.5 974.2 0.2
13 13.06 С 5 12 км в посл. час дождь н/о +8.6 +3.5 70 +5 +5 1005.9 973.7
14 13.06 С 5 50 км в посл. час дождь н/о +7.8 +3.6 75 +4 +4 1005.5 973.2
15 13.06 С 3 40 км в посл. час дождь н/о +7.8 +4.1 77 +5 +5 1004.7 972.4
16 13.06 З 7 18 км в посл. час дождь н/о +7.3 +5.2 87 +3 +3 1004.0 971.7
17 13.06 З 6 19 км ливневой дождь н/о +7.0 +6.1 94 +2 +2 1003.2 970.9
18 13.06 З 6 40 км в посл. час дождь н/о +7.2 +6.3 94 +3 +3 1002.7 970.4 +9.9 0.6
19 13.06 З 5 11 км н/о +7.9 +7.0 94 +4 +4 1002.1 969.9
20 13.06 З 4 30 км слаб. ливневой дождь н/о +7.6 +6.9 95 +4 +4 1001.9 969.6
21 13.06 З 5 21 км слаб. дождь н/о +7.5 +7.0 97 +3 +3 1001.8 969.5
22 13.06 З 4 10 км слаб. дождь н/о +7.4 +6.9 97 +4 +4 1001.5 969.2
23 13.06 З 4 9000 м слаб. дождь н/о +7.3 +6.8 97 +4 +4 1001.2 968.9
00 14.06 З 4 15 км слаб. дождь н/о +7.1 +6.6 97 +3 +3 1001.0 968.8 0.6
01 14.06 З 3 15 км дождь н/о +7.0 +6.4 96 +4 +4 1000.6 968.3
02 14.06 З 4 15 км слаб. дождь н/о +6.8 +6.2 96 +3 +3 1000.3 968.0
03 14.06 З 2 18 км дождь н/о +6.8 +6.2 96 +4 +4 1000.0 967.8
04 14.06 З 1 30 км жидкие осадки н/о +6.8 +6.2 96 +6 +6 999.8 967.5
05 14.06 З 1 11 км слаб. морось н/о +7.2 +6.3 94 +7 +7 1000.0 967.7
06 14.06 ЮЗ 1 50 км в посл. час дождь н/о +8.0 +6.6 91 +7 +7 1000.2 968.0 +6.7 2
07 14.06 Ю 4 45 км н/о +8.4 +6.1 85 +5 +5 1000.4 968.4
08 14.06 В 4 30 км н/о +8.7 +6.9 88 +5 +5 1001.0 968.9
09 14.06 ЮВ 4 40 км н/о +10.2 +6.0 75 +8 +8 1001.2 969.3
10 14.06 Ю 3 45 км в посл. час дождь н/о +10.7 +5.4 70 +9 +9 1001.4 969.5
11 14.06 ЮВ 5 40 км н/о +12.9 +5.2 59 +11 +11 1001.4 969.8
12 14.06 ЮВ 7 30 км в посл. час дождь н/о +13.2 +6.0 62 +11 +11 1001.9 970.3 0.0
13 14.06 ЮВ 7 40 км н/о +13.6 +3.6 51 +11 +11 1002.0 970.4
14 14.06 ЮВ 7 45 км н/о +14.2 +4.1 51 +12 +12 1002.4 970.9
15 14.06 ЮВ 8 40 км н/о +13.1 +3.1 51 +11 +11 1003.2 971.5
16 14.06 Ю 7 45 км н/о +13.4 +3.8 52 +11 +11 1003.6 972.0
17 14.06 Ю 5 50 км в посл. час дождь н/о +14.0 +4.1 51 +13 +13 1004.0 972.4
18 14.06 Ю 4 50 км н/о +12.8 +3.7 54 +11 +11 1005.1 973.3 +14.8 0.0
19 14.06 ЮВ 5 45 км н/о +13.0 +3.7 53 +11 +11 1005.3 973.6
20 14.06 ЮВ 4 50 км н/о +12.3 +2.9 53 +11 +11 1006.1 974.3
21 14.06 Ю 4 50 км н/о +10.0 +2.8 61 +8 +8 1007.1 975.0
22 14.06 ЮВ 2 50 км н/о +6.0 +2.3 77 +4 +4 1008.3 975.7
23 14.06 ЮВ 4 50 км н/о +8.9 +3.5 69 +6 +6 1008.2 975.9
00 15.06 ЮВ 4 35 км н/о +9.5 +3.9 68 +7 +7 1008.5 976.3 0.0
01 15.06 ЮВ 1 50 км н/о +8.2 +4.3 76 +8 +8 1008.8 976.5
02 15.06 ЮВ 3 45 км н/о +8.0 +5.4 84 +5 +5 1008.6 976.2
03 15.06 ЮВ 3 40 км н/о +8.9 +5.4 79 +6 +6 1008.4 976.1
04 15.06 ЮВ 4 45 км н/о +8.9 +5.5 79 +6 +6 1008.5 976.2
05 15.06 ЮВ 5 50 км н/о +10.0 +5.6 74 +7 +7 1008.3 976.1
06 15.06 ЮВ 5 45 км н/о +10.9 +6.2 73 +8 +8 1008.3 976.2 +6.0
07 15.06 В 7 50 км н/о +11.2 +6.3 72 +8 +8 1008.6 976.5
08 15.06 В 6 45 км н/о +12.5 +7.1 70 +10 +10 1008.4 976.5
09 15.06 В 6 35 км н/о +12.9 +7.8 71 +11 +11 1008.3 976.4
10 15.06 В 8 50 км н/о +12.7 +7.5 71 +10 +10 1008.2 976.3
11 15.06 В 7 45 км в посл. час дождь н/о +13.3 +8.1 71 +11 +11 1008.1 976.3
12 15.06 В 7 4500 м ливневой дождь н/о +11.8 +8.8 82 +9 +9 1008.7 976.7 0.6
13 15.06 В 4 6000 м сильн. дождь н/о +11.6 +10.1 91 +9 +9 1008.8 976.8
14 15.06 В 5 40 км в посл. час дождь н/о +14.9 +11.5 80 +14 +14 1007.6 976.0
15 15.06 В 5 40 км н/о +14.3 +9.1 71 +13 +13 1007.8 976.1
16 15.06 В 3 35 км н/о +15.4 +8.4 63 +15 +15 1007.5 976.0
17 15.06 ЮВ 5 45 км н/о +15.6 +7.1 57 +15 +15 1007.1 975.6
18 15.06 ЮВ 4 40 км н/о +15.3 +7.9 61 +14 +14 1007.0 975.4 +16.3 4
19 15.06 ЮВ 4 45 км н/о +14.6 +6.4 58 +14 +14 1006.9 975.3
20 15.06 З 2 40 км н/о +12.8 +7.7 71 +12 +12 1006.9 975.0
21 15.06 З 2 50 км н/о +12.0 +8.9 81 +11 +11 1007.3 975.4
22 15.06 СЗ 2 50 км в посл. час дождь н/о +11.7 +8.5 81 +11 +11 1007.6 975.6
23 15.06 ЮЗ 1 45 км н/о +9.5 +7.3 86 +9 +9 1007.6 975.4
00 16.06 штиль 0 35 км н/о +8.8 +7.4 91 +8 +8 1007.5 975.3 0.0
01 16.06 З 1 40 км н/о +8.9 +7.8 93 +8 +8 1007.3 975.1
02 16.06 В 3 28 км ливневой дождь н/о +9.8 +8.6 92 +7 +7 1006.7 974.6
03 16.06 В 2 26 км слаб. дождь н/о +9.3 +8.1 92 +7 +7 1006.6 974.4
04 16.06 ЮВ 2 40 км в посл. час дождь н/о +8.8 +7.3 90 +7 +7 1006.3 974.1
05 16.06 З 1 50 км н/о +8.4 +6.9 90 +8 +8 1006.4 974.1
06 16.06 ЮЗ 1 50 км н/о +9.7 +7.7 87 +9 +9 1006.4 974.3 +7.8 1
07 16.06 З 6 45 км н/о +10.1 +6.0 76 +7 +7 1006.4 974.3
08 16.06 ЮЗ 7 50 км н/о +10.4 +6.1 75 +7 +7 1006.9 974.8
09 16.06 ЮЗ 4 45 км н/о +10.5 +6.5 76 +8 +8 1007.3 975.2
10 16.06 ЮЗ 6 26 км н/о +12.5 +6.7 68 +10 +10 1007.1 975.2
11 16.06 ЮЗ 5 30 км н/о +12.3 +6.3 67 +10 +10 1007.5 975.6
12 16.06 З 6 40 км н/о +11.7 +4.3 60 +9 +9 1007.6 975.7
13 16.06 З 5 45 км н/о +12.4 +4.6 59 +10 +10 1007.5 975.6
14 16.06 ЮЗ 5 45 км н/о +13.4 +4.0 53 +12 +12 1007.3 975.6
15 16.06 Ю 5 45 км н/о +13.4 +4.4 54 +12 +12 1007.5 975.7
16 16.06 Ю 4 40 км в посл. час дождь н/о +12.8 +5.5 61 +11 +11 1007.4 975.6
17 16.06 ЮЗ 5 5000 м ливневой дождь н/о +9.6 +6.5 81 +6 +6 1008.3 976.1
18 16.06 СЗ 2 50 км в посл. час дождь н/о +10.2 +5.8 74 +9 +9 1007.9 975.8 +15.0 0.4
19 16.06 СВ 2 50 км н/о +10.9 +5.6 70 +10 +10 1007.6 975.6
20 16.06 В 1 50 км н/о +9.0 +4.7 74 +8 +8 1007.6 975.4
21 16.06 ЮЗ 1 50 км н/о +6.8 +4.2 83 +7 +7 1007.8 975.3
22 16.06 З 1 50 км н/о +5.9 +4.4 90 +5 +5 1007.6 975.0
23 16.06 В 1 50 км н/о +6.2 +4.6 89 +6 +6 1006.9 974.3
00 17.06 СЗ 2 50 км н/о +6.4 +5.3 93 +4 +4 1006.1 973.6
01 17.06 ЮВ 1 50 км н/о +7.7 +5.9 88 +7 +7 1005.5 973.2
02 17.06 СЗ 1 24 км дождь н/о +7.9 +6.8 93 +7 +7 1005.0 972.7
03 17.06 С 1 12 км дождь н/о +8.4 +7.6 95 +7 +7 1004.3 972.1
04 17.06 С 1 17 км слаб. дождь н/о +8.3 +7.6 95 +8 +8 1004.0 971.7
05 17.06 СЗ 1 15 км дождь н/о +8.6 +8.1 97 +9 +9 1003.9 971.7
06 17.06 З 1 30 км в посл. час дождь н/о +9.1 +8.4 95 +8 +8 1004.3 972.2 +4.9 2
07 17.06 СЗ 1 35 км в посл. час дождь н/о +10.0 +7.0 82 +10 +10 1004.4 972.4
08 17.06 ЮЗ 4 7000 м слаб. ливневой дождь н/о +10.2 +7.3 82 +8 +8 1004.8 972.8
09 17.06 ЮЗ 5 40 км в посл. час дождь н/о +11.1 +7.9 81 +8 +8 1005.0 973.0
10 17.06 ЮЗ 6 40 км н/о +12.6 +7.1 69 +10 +10 1004.7 973.0
11 17.06 З 6 35 км н/о +12.8 +6.2 64 +10 +10 1004.7 973.0
12 17.06 ЮЗ 4 40 км в посл. час дождь н/о +13.9 +7.9 67 +12 +12 1004.6 973.0 0.2
13 17.06 ЮЗ 4 8000 м ливневой дождь н/о +11.2 +8.3 82 +9 +9 1005.1 973.2
14 17.06 ЮЗ 4 50 км в посл. час дождь н/о +12.8 +7.9 72 +11 +11 1004.7 972.9
15 17.06 З 3 30 км ливневой дождь н/о +11.8 +7.9 77 +10 +10 1004.9 973.1
16 17.06 С 2 45 км в посл. час дождь н/о +11.3 +7.2 76 +11 +11 1004.9 973.0
17 17.06 ЮЗ 3 23 км ливневой дождь н/о +10.5 +8.2 86 +9 +9 1005.2 973.2
18 17.06 ЮЗ 6 45 км в посл. час дождь н/о +10.8 +7.4 80 +8 +8 1005.6 973.6 +14.4 3
19 17.06 З 4 50 км н/о +11.5 +7.2 75 +10 +10 1006.1 974.2
20 17.06 ЮЗ 6 45 км слаб. ливневой дождь н/о +10.6 +7.1 79 +8 +8 1006.6 974.6
21 17.06 ЮЗ 5 50 км в посл. час дождь н/о +10.3 +5.6 73 +8 +8 1007.0 974.9
22 17.06 ЮЗ 4 50 км в посл. час дождь н/о +10.2 +6.0 75 +8 +8 1007.1 975.0
23 17.06 ЮЗ 7 50 км н/о +10.2 +5.8 74 +7 +7 1006.4 974.3
00 18.06 ЮЗ 8-13
{18}
50 км н/о +10.3 +5.6 73 +6 +6 1006.7 974.6 0.0
01 18.06 ЮЗ 4
{13}
50 км н/о +10.1 +4.8 70 +8 +8 1006.9 974.8
02 18.06 ЮВ 3 45 км н/о +9.5 +4.4 70 +8 +8 1006.1 974.0
03 18.06 В 3 50 км в посл. час дождь н/о +9.9 +4.6 70 +8 +8 1005.5 973.4
04 18.06 Ю 3 50 км в посл. час дождь н/о +9.8 +5.4 74 +8 +8 1005.0 972.9
05 18.06 ЮЗ 6 13 км ливневой дождь н/о +9.5 +6.2 80 +6 +6 1004.7 972.6
06 18.06 Ю 5 11 км ливневой дождь н/о +9.7 +6.3 79 +7 +7 1004.5 972.4 +9.1 1
07 18.06 ЮЗ 7
{13}
13 км дождь н/о +9.3 +7.1 86 +5 +5 1004.9 972.7
08 18.06 ЮЗ 6 9000 м дождь н/о +9.8 +7.5 86 +6 +6 1004.9 972.8
09 18.06 ЮЗ 7 19 км слаб. дождь н/о +10.7 +8.1 84 +7 +7 1005.1 973.1
10 18.06 З 5 29 км ливневой дождь н/о +10.7 +8.1 84 +8 +8 1005.6 973.6
11 18.06 З 7 50 км в посл. час дождь н/о +13.2 +9.4 78 +11 +11 1005.4 973.7
12 18.06 З 5 28 км в посл. час дождь н/о +11.4 +8.0 80 +9 +9 1006.3 974.4 4
13 18.06 ЮЗ 8 5000 м слаб. морось с дождем н/о +10.7 +8.0 83 +7 +7 1006.8 974.8
14 18.06 ЮЗ 7 13 км в посл. час дождь н/о +11.4 +7.6 77 +8 +8 1006.9 974.9
15 18.06 ЮЗ 9
{13}
30 км в посл. час дождь н/о +12.0 +9.8 86 +8 +8 1006.8 974.9
16 18.06 ЮЗ 5
{13}
16 км слаб. морось с дождем н/о +11.1 +8.1 82 +8 +8 1007.3 975.3
17 18.06 ЮЗ 4 40 км в посл. час дождь н/о +11.1 +7.9 81 +9 +9 1007.6 975.5
18 18.06 З 5 45 км н/о +11.7 +7.1 73 +9 +9 1007.4 975.5 +13.4 4
19 18.06 З 4 45 км н/о +11.3 +7.0 75 +9 +9 1007.6 975.6
20 18.06 ЮЗ 4 50 км н/о +10.8 +7.3 79 +8 +8 1007.7 975.6
21 18.06 ЮЗ 5 45 км н/о +10.7 +7.2 79 +8 +8 1007.7 975.7
22 18.06 ЮЗ 6 24 км в посл. час дождь н/о +10.4 +7.5 82 +7 +7 1007.7 975.6
23 18.06 Ю 4 50 км в посл. час дождь н/о +10.6 +7.4 81 +8 +8 1007.4 975.3
00 19.06 Ю 4 50 км н/о +10.7 +7.0 78 +8 +8 1006.9 974.8 0.0
01 19.06 ЮЗ 6 50 км слаб. ливневой дождь н/о +10.4 +6.8 78 +7 +7 1006.7 974.6
02 19.06 ЮЗ 7 50 км в посл. час дождь н/о +10.3 +6.2 76 +7 +7 1006.3 974.2
03 19.06 ЮЗ 5 50 км слаб. ливневой дождь н/о +10.3 +6.6 78 +7 +7 1006.1 974.0
04 19.06 ЮЗ 4 7000 м слаб. ливневой дождь н/о +9.7 +7.4 86 +7 +7 1006.0 973.9
05 19.06 СЗ 1 50 км в посл. час дождь н/о +9.9 +7.1 83 +10 +10 1005.6 973.5
06 19.06 ЮЗ 2 50 км н/о +10.4 +6.5 77 +9 +9 1005.3 973.3 +9.4 0.0
07 19.06 ЮЗ 4 35 км н/о +10.4 +6.6 77 +8 +8 1005.3 973.3
08 19.06 В 3 50 км н/о +10.5 +7.5 82 +8 +8 1005.0 973.0
09 19.06 В 3 50 км н/о +11.4 +7.2 75 +10 +10 1004.6 972.7
10 19.06 ЮЗ 3 35 км н/о +12.4 +7.4 72 +11 +11 1004.4 972.6
11 19.06 ЮЗ 4 50 км в посл. час дождь н/о +11.2 +7.6 78 +9 +9 1004.6 972.7
12 19.06 ЮЗ 4 21 км слаб. ливневой дождь н/о +12.4 +9.0 80 +10 +10 1004.4 972.6 0.2
13 19.06 ЮЗ 6 17 км слаб. морось с дождем н/о +12.3 +6.9 70 +10 +10 1004.5 972.7
14 19.06 ЮЗ 7 45 км в посл. час дождь н/о +14.1 +6.1 59 +12 +12 1004.2 972.6
15 19.06 ЮЗ 7 45 км н/о +14.8 +6.1 56 +13 +13 1003.7 972.2
17 19.06 ЮЗ 7 50 км н/о +13.0 +5.5 60 +10 +10 1003.7 972.0
18 19.06 З 6 50 км н/о +12.8 +4.6 57 +11 +11 1003.7 971.9 +15.5 0.2
19 19.06 ЮЗ 6 45 км н/о +11.7 +5.0 63 +9 +9 1003.7 971.9
20 19.06 ЮЗ 5 45 км н/о +10.4 +5.5 72 +8 +8 1004.1 972.2

 

Местоположение метеостанции Озеро Гласкарнок (Великобритания): широта 57.72 долгота -4.88 высота над уровнем моря 264 м.

В архиве по умолчанию представлена погода на Озере Гласкарнок за последнюю неделю. Архивные данные за месяц целиком и за предыдущие месяцы, начиная с января 2011 года, Вы можете получить, выбрав интересующий диапазон дат из раскрывающегося списка и нажав кнопку "Ввод!".


*Определитесь, кто Вы:
робот инопланетянин человек

Внимание! Время в таблицах - всемирное. Для получения местного времени необходимо прибавить поправку, которая равна 0 ч.

Смотрите также архив погоды в соседних городах и на ближайших метеорологических станциях:

Погода в Олтбее (Великобритания) (47 км)
Погода в Тейн-Рендже (Великобритания) (55 км)
Погода на Перевале Bealach Na Ba (Великобритания) (58 км)
Погода на Алтнахарре (Великобритания) (68 км)
Погода на Скае (Великобритания) (76 км)
Погода в Кинлоссе (Великобритания) (78 км)
Погода на Авморе (Великобритания) (85 км)
Погода в Лоссимуте (Великобритания) (93 км)
Погода на Станции Tulloch Bridge (Великобритания) (95 км)
Погода на Горе Аонах Мор (Великобритания) (100 км)

Пояснения к столбцам:

Ветер - указаны скорость ветра в м/с - средняя за 10 мин, порывы в срок и между сроками (в фигурных скобках) и направление, откуда дует ветер: С - северный, СВ - северо-восточный, В - восточный, ЮВ - юго-восточный, Ю - южный, ЮЗ - юго-западный, З - западный, СЗ - северо-западный.
Видимость - горизонтальная дальность видимости в метрах или километрах. При видимости от 1 до 10 км при отсутствии осадков обычно наблюдается дымка, при ухудшении видимости до 1 км и менее - туман. В сухую погоду видимость может ухудшаться дымом, пылью или мглою.
Явления - указаны атмосферные явления, наблюдавшиеся в срок или в последний час перед сроком; фигурными скобками обозначены явления, наблюдавшиеся между сроками (за 1-3 часа до срока); квадратными скобками обозначены град или гололедные отложения с указанием их диаметра в мм.
Облачность - указаны через наклонную черту общая и нижняя облачность в баллах и высота нижней границы облаков в метрах; квадратными скобками обозначены формы облаков: Ci - перистые, Cs - перисто-слоистые, Cc - перисто-кучевые, Ac - высококучевые, As - высокослоистые, Sc - слоисто-кучевые, Ns - слоисто-дождевые, Cu - кучевые, Cb - кучево-дождевые. Подробнее классификацию облаков см. в Атласе облаков (PDF).
T - Температура воздуха - температура, измеренная на высоте 2 м над землей.
Td - Температура точки росы - температура, при понижении до которой содержащийся в воздухе водяной пар достигнет насыщения.
f - Относительная влажность воздуха - влажноcть воздуха, измеренная на высоте 2 м над землей.
Te - Эффективная температура - температура, которую ощущает одетый по сезону человек в тени. Характеристика душности погоды. При расчете учитывается влияние влажности воздуха и скорости ветра на теплоощущения человека.
Tes - Эффективная температура на солнце - температура, которую ощущает человек, с поправкой на солнечный нагрев. Характеристика знойности погоды. Зависит от высоты солнца над горизонтом, облачности и скорости ветра. Ночью, в пасмурную погоду, а также при ветре 12 м/с и более поправка равна нулю.
P - Атмосферное давление - приведенное к уровню моря атмосферное давление.
Po - Атмосферное давление - измеренное на уровне метеостанции атмосферное давление.
Tmin - Минимальная температура - минимум температуры воздуха на высоте 2 м над землей.
Tmax - Максимальная температура - максимум температуры воздуха на высоте 2 м над землей.
R - Количество осадков - Количество выпавших осадков за период времени, мм. При наведении курсора мыши на число - период времени, за который выпало указанное количество осадков.
R24 - Количество осадков - Количество выпавших осадков за 24 часа, мм.
S - Снежный покров - Высота снежного покрова, см. При наведении курсора мыши на число - состояние снежного покрова и степень покрытия местности в баллах.